Time,TemperatureF,DewpointF,PressureIn,WindDirection,WindDirectionDegrees,WindSpeedMPH,WindSpeedGustMPH,Humidity,HourlyPrecipIn,Conditions,Clouds,dailyrainin,SoftwareType,DateUTC
2013-03-05 00:01:00,24.1,20.5,30.03,ENE,72,0.0,2.0,86,0.00,,,0.00,WUHU216DAVISVP2,2013-03-05 06:01:00,
2013-03-05 00:06:00,24.1,20.5,30.03,NE,42,0.0,2.0,86,0.00,,,0.00,WUHU216DAVISVP2,2013-03-05 06:06:00,
2013-03-05 00:11:00,24.0,20.4,30.03,NE,42,0.0,0.0,86,0.00,,,0.00,WUHU216DAVISVP2,2013-03-05 06:11:00,
2013-03-05 00:16:00,24.0,20.7,30.03,NE,42,0.0,0.0,87,0.00,,,0.00,WUHU216DAVISVP2,2013-03-05 06:16:00,
2013-03-05 00:21:00,24.0,20.7,30.03,NE,42,0.0,0.0,87,0.00,,,0.00,WUHU216DAVISVP2,2013-03-05 06:21:00,
2013-03-05 00:26:00,23.9,20.6,30.03,NE,42,0.0,0.0,87,0.00,,,0.00,WUHU216DAVISVP2,2013-03-05 06:26:00,
2013-03-05 00:31:00,24.0,20.7,30.04,NNE,18,0.0,0.0,87,0.00,,,0.00,WUHU216DAVISVP2,2013-03-05 06:31:00,
2013-03-05 00:36:00,23.9,20.6,30.03,NNE,19,0.0,0.0,87,0.00,,,0.00,WUHU216DAVISVP2,2013-03-05 06:36:00,
2013-03-05 00:41:00,23.9,20.6,30.04,NNE,19,0.0,0.0,87,0.00,,,0.00,WUHU216DAVISVP2,2013-03-05 06:41:00,
2013-03-05 00:46:00,23.9,20.6,30.04,NNE,19,0.0,0.0,87,0.00,,,0.00,WUHU216DAVISVP2,2013-03-05 06:46:00,
2013-03-05 00:51:00,23.9,20.6,30.04,NNE,18,0.0,0.0,87,0.00,,,0.00,WUHU216DAVISVP2,2013-03-05 06:51:00,
2013-03-05 00:56:00,23.9,20.6,30.04,NNE,24,0.0,0.0,87,0.00,,,0.00,WUHU216DAVISVP2,2013-03-05 06:56:00,
2013-03-05 01:01:00,23.9,20.6,30.04,North,360,3.0,4.0,87,0.00,,,0.00,WUHU216DAVISVP2,2013-03-05 07:01:00,
2013-03-05 01:06:00,23.9,20.6,30.05,North,360,0.0,4.0,87,0.00,,,0.00,WUHU216DAVISVP2,2013-03-05 07:06:00,
2013-03-05 01:11:00,24.0,20.7,30.05,North,5,0.0,3.0,87,0.00,,,0.00,WUHU216DAVISVP2,2013-03-05 07:11:00,
2013-03-05 01:16:00,24.0,20.7,30.05,North,360,0.0,0.0,87,0.00,,,0.00,WUHU216DAVISVP2,2013-03-05 07:16:00,
2013-03-05 01:21:00,24.0,20.7,30.05,NNE,18,0.0,6.0,87,0.00,,,0.00,WUHU216DAVISVP2,2013-03-05 07:21:00,
2013-03-05 01:26:00,24.0,20.7,30.05,NNE,18,2.0,6.0,87,0.00,,,0.00,WUHU216DAVISVP2,2013-03-05 07:26:00,
2013-03-05 01:31:00,24.0,20.7,30.06,NNE,18,0.0,3.0,87,0.00,,,0.00,WUHU216DAVISVP2,2013-03-05 07:31:00,
2013-03-05 01:36:00,24.0,20.9,30.06,North,5,0.0,2.0,88,0.00,,,0.00,WUHU216DAVISVP2,2013-03-05 07:36:00,
2013-03-05 01:41:00,24.0,20.9,30.06,North,360,0.0,0.0,88,0.00,,,0.00,WUHU216DAVISVP2,2013-03-05 07:41:00,
2013-03-05 01:46:00,24.0,20.9,30.06,North,5,0.0,0.0,88,0.00,,,0.00,WUHU216DAVISVP2,2013-03-05 07:46:00,
2013-03-05 01:51:00,24.0,20.7,30.07,North,360,0.0,0.0,87,0.00,,,0.00,WUHU216DAVISVP2,2013-03-05 07:51:00,
2013-03-05 01:56:00,24.1,21.0,30.07,NNE,22,0.0,0.0,88,0.00,,,0.00,WUHU216DAVISVP2,2013-03-05 07:56:00,
2013-03-05 02:01:00,24.1,21.0,30.07,North,360,1.0,5.0,88,0.00,,,0.00,WUHU216DAVISVP2,2013-03-05 08:01:00,
2013-03-05 02:06:00,24.1,21.0,30.07,North,5,2.0,5.0,88,0.00,,,0.00,WUHU216DAVISVP2,2013-03-05 08:06:00,
2013-03-05 02:11:00,24.1,21.0,30.07,North,11,3.0,5.0,88,0.00,,,0.00,WUHU216DAVISVP2,2013-03-05 08:11:00,
2013-03-05 02:16:00,24.1,21.0,30.07,North,11,0.0,5.0,88,0.00,,,0.00,WUHU216DAVISVP2,2013-03-05 08:16:00,
2013-03-05 02:21:00,24.1,21.0,30.07,NNE,13,5.0,5.0,88,0.00,,,0.00,WUHU216DAVISVP2,2013-03-05 08:21:00,
2013-03-05 02:26:00,24.1,21.0,30.07,North,5,0.0,5.0,88,0.00,,,0.00,WUHU216DAVISVP2,2013-03-05 08:26:00,
2013-03-05 02:31:00,24.1,21.0,30.08,North,5,0.0,5.0,88,0.00,,,0.00,WUHU216DAVISVP2,2013-03-05 08:31:00,
2013-03-05 02:36:00,24.1,21.0,30.08,NNE,20,0.0,5.0,88,0.00,,,0.00,WUHU216DAVISVP2,2013-03-05 08:36:00,
2013-03-05 02:41:00,24.1,21.0,30.08,NNE,24,0.0,4.0,88,0.00,,,0.00,WUHU216DAVISVP2,2013-03-05 08:41:00,
2013-03-05 02:46:00,24.1,21.0,30.08,NNE,19,4.0,5.0,88,0.00,,,0.00,WUHU216DAVISVP2,2013-03-05 08:46:00,
2013-03-05 02:51:00,24.1,21.0,30.08,North,11,1.0,7.0,88,0.00,,,0.00,WUHU216DAVISVP2,2013-03-05 08:51:00,
2013-03-05 02:56:00,24.1,21.0,30.08,North,5,1.0,7.0,88,0.00,,,0.00,WUHU216DAVISVP2,2013-03-05 08:56:00,
2013-03-05 03:01:00,24.1,21.0,30.08,North,5,3.0,5.0,88,0.00,,,0.00,WUHU216DAVISVP2,2013-03-05 09:01:00,
2013-03-05 03:06:00,24.1,21.0,30.08,North,9,4.0,6.0,88,0.00,,,0.00,WUHU216DAVISVP2,2013-03-05 09:06:00,
2013-03-05 03:11:00,24.1,21.0,30.08,NNE,32,1.0,7.0,88,0.00,,,0.00,WUHU216DAVISVP2,2013-03-05 09:11:00,
2013-03-05 03:16:00,24.2,21.1,30.09,NNE,14,5.0,7.0,88,0.00,,,0.00,WUHU216DAVISVP2,2013-03-05 09:16:00,
2013-03-05 03:21:00,24.2,21.1,30.08,NNE,28,4.0,7.0,88,0.00,,,0.00,WUHU216DAVISVP2,2013-03-05 09:21:00,
2013-03-05 03:26:00,24.2,21.1,30.09,NNE,17,2.0,8.0,88,0.00,,,0.00,WUHU216DAVISVP2,2013-03-05 09:26:00,
2013-03-05 03:31:00,24.2,21.1,30.09,North,349,3.0,8.0,88,0.00,,,0.00,WUHU216DAVISVP2,2013-03-05 09:31:00,
2013-03-05 03:36:00,24.2,21.1,30.09,North,5,3.0,7.0,88,0.00,,,0.00,WUHU216DAVISVP2,2013-03-05 09:36:00,
2013-03-05 03:41:00,24.2,21.1,30.09,North,355,3.0,7.0,88,0.00,,,0.00,WUHU216DAVISVP2,2013-03-05 09:41:00,
2013-03-05 03:46:00,24.2,21.1,30.09,NNE,18,2.0,6.0,88,0.00,,,0.00,WUHU216DAVISVP2,2013-03-05 09:46:00,
2013-03-05 03:51:00,24.2,21.1,30.10,NNE,22,3.0,6.0,88,0.00,,,0.00,WUHU216DAVISVP2,2013-03-05 09:51:00,
2013-03-05 03:56:00,24.2,21.1,30.10,NNE,14,3.0,7.0,88,0.00,,,0.00,WUHU216DAVISVP2,2013-03-05 09:56:00,
2013-03-05 04:01:00,24.1,21.0,30.10,North,10,5.0,9.0,88,0.00,,,0.00,WUHU216DAVISVP2,2013-03-05 10:01:00,
2013-03-05 04:06:00,24.1,21.0,30.10,North,5,7.0,9.0,88,0.00,,,0.00,WUHU216DAVISVP2,2013-03-05 10:06:00,
2013-03-05 04:11:00,24.1,21.0,30.10,North,9,3.0,7.0,88,0.00,,,0.00,WUHU216DAVISVP2,2013-03-05 10:11:00,
2013-03-05 04:16:00,24.0,20.9,30.10,North,360,3.0,7.0,88,0.00,,,0.00,WUHU216DAVISVP2,2013-03-05 10:16:00,
2013-03-05 04:21:00,24.1,21.0,30.11,NE,45,2.0,7.0,88,0.00,,,0.00,WUHU216DAVISVP2,2013-03-05 10:21:00,
2013-03-05 04:26:00,24.0,20.9,30.11,North,351,4.0,7.0,88,0.00,,,0.00,WUHU216DAVISVP2,2013-03-05 10:26:00,
2013-03-05 04:31:00,24.0,20.9,30.11,North,5,3.0,7.0,88,0.00,,,0.00,WUHU216DAVISVP2,2013-03-05 10:31:00,
2013-03-05 04:36:00,24.0,20.9,30.11,NNE,15,3.0,10.0,88,0.00,,,0.00,WUHU216DAVISVP2,2013-03-05 10:36:00,
2013-03-05 04:41:00,24.0,20.9,30.11,NNE,15,4.0,10.0,88,0.00,,,0.00,WUHU216DAVISVP2,2013-03-05 10:41:00,
2013-03-05 04:46:00,24.0,20.9,30.12,NNE,18,3.0,6.0,88,0.00,,,0.00,WUHU216DAVISVP2,2013-03-05 10:46:00,
2013-03-05 04:51:00,24.0,20.9,30.12,North,360,5.0,6.0,88,0.00,,,0.00,WUHU216DAVISVP2,2013-03-05 10:51:00,
2013-03-05 04:56:00,24.0,20.9,30.12,NE,35,3.0,7.0,88,0.00,,,0.00,WUHU216DAVISVP2,2013-03-05 10:56:00,
2013-03-05 05:01:00,23.9,20.8,30.12,NNE,21,2.0,7.0,88,0.00,,,0.00,WUHU216DAVISVP2,2013-03-05 11:01:00,
2013-03-05 05:06:00,23.9,20.8,30.12,NNE,15,3.0,6.0,88,0.00,,,0.00,WUHU216DAVISVP2,2013-03-05 11:06:00,
2013-03-05 05:11:00,23.9,20.8,30.13,NNE,16,5.0,6.0,88,0.00,,,0.00,WUHU216DAVISVP2,2013-03-05 11:11:00,
2013-03-05 05:16:00,23.9,20.8,30.13,North,360,3.0,8.0,88,0.00,,,0.00,WUHU216DAVISVP2,2013-03-05 11:16:00,
2013-03-05 05:21:00,23.9,20.8,30.13,North,355,3.0,9.0,88,0.00,,,0.00,WUHU216DAVISVP2,2013-03-05 11:21:00,
2013-03-05 05:26:00,23.9,20.8,30.13,North,9,4.0,9.0,88,0.00,,,0.00,WUHU216DAVISVP2,2013-03-05 11:26:00,
2013-03-05 05:31:00,23.8,20.7,30.13,NNE,12,3.0,9.0,88,0.00,,,0.00,WUHU216DAVISVP2,2013-03-05 11:31:00,
2013-03-05 05:36:00,23.8,20.7,30.13,NE,42,3.0,9.0,88,0.00,,,0.00,WUHU216DAVISVP2,2013-03-05 11:36:00,
2013-03-05 05:41:00,23.8,20.7,30.13,NE,36,2.0,7.0,88,0.00,,,0.00,WUHU216DAVISVP2,2013-03-05 11:41:00,
2013-03-05 05:46:00,23.8,20.7,30.14,NNE,29,5.0,9.0,88,0.00,,,0.00,WUHU216DAVISVP2,2013-03-05 11:46:00,
2013-03-05 05:51:00,23.8,20.7,30.14,North,350,5.0,9.0,88,0.00,,,0.00,WUHU216DAVISVP2,2013-03-05 11:51:00,
2013-03-05 05:56:00,23.8,20.7,30.15,NNE,14,4.0,7.0,88,0.00,,,0.00,WUHU216DAVISVP2,2013-03-05 11:56:00,
2013-03-05 06:01:00,23.7,20.6,30.15,NNE,19,4.0,9.0,88,0.00,,,0.00,WUHU216DAVISVP2,2013-03-05 12:01:00,
2013-03-05 06:06:00,23.7,20.6,30.15,NNE,19,6.0,9.0,88,0.00,,,0.00,WUHU216DAVISVP2,2013-03-05 12:06:00,
2013-03-05 06:11:00,23.8,20.7,30.15,NNE,17,4.0,7.0,88,0.00,,,0.00,WUHU216DAVISVP2,2013-03-05 12:11:00,
2013-03-05 06:16:00,23.7,20.6,30.16,North,5,3.0,7.0,88,0.00,,,0.00,WUHU216DAVISVP2,2013-03-05 12:16:00,
2013-03-05 06:21:00,23.7,20.4,30.16,NNE,26,6.0,7.0,87,0.00,,,0.00,WUHU216DAVISVP2,2013-03-05 12:21:00,
2013-03-05 06:26:00,23.6,20.3,30.16,North,360,2.0,7.0,87,0.00,,,0.00,WUHU216DAVISVP2,2013-03-05 12:26:00,
2013-03-05 06:31:00,23.5,20.2,30.16,NNE,26,1.0,6.0,87,0.00,,,0.00,WUHU216DAVISVP2,2013-03-05 12:31:00,
2013-03-05 06:36:00,23.5,20.2,30.17,North,11,3.0,6.0,87,0.00,,,0.00,WUHU216DAVISVP2,2013-03-05 12:36:00,
2013-03-05 06:41:00,23.5,20.4,30.17,North,360,3.0,7.0,88,0.00,,,0.00,WUHU216DAVISVP2,2013-03-05 12:41:00,
2013-03-05 06:46:00,23.4,20.3,30.17,North,355,4.0,7.0,88,0.00,,,0.00,WUHU216DAVISVP2,2013-03-05 12:46:00,
2013-03-05 06:51:00,23.4,20.3,30.17,NNW,348,2.0,6.0,88,0.00,,,0.00,WUHU216DAVISVP2,2013-03-05 12:51:00,
2013-03-05 06:56:00,23.3,20.2,30.17,NNE,15,3.0,6.0,88,0.00,,,0.00,WUHU216DAVISVP2,2013-03-05 12:56:00,
2013-03-05 07:01:00,23.3,20.2,30.18,North,10,0.0,6.0,88,0.00,,,0.00,WUHU216DAVISVP2,2013-03-05 13:01:00,
2013-03-05 07:06:00,23.3,20.2,30.18,North,9,0.0,6.0,88,0.00,,,0.00,WUHU216DAVISVP2,2013-03-05 13:06:00,
2013-03-05 07:11:00,23.2,20.1,30.18,NNW,333,2.0,9.0,88,0.00,,,0.00,WUHU216DAVISVP2,2013-03-05 13:11:00,
2013-03-05 07:16:00,23.2,20.1,30.19,North,5,0.0,9.0,88,0.00,,,0.00,WUHU216DAVISVP2,2013-03-05 13:16:00,
2013-03-05 07:21:00,23.2,20.1,30.19,North,355,0.0,5.0,88,0.00,,,0.00,WUHU216DAVISVP2,2013-03-05 13:21:00,
2013-03-05 07:26:00,23.2,20.1,30.19,North,9,3.0,9.0,88,0.00,,,0.00,WUHU216DAVISVP2,2013-03-05 13:26:00,
2013-03-05 07:31:00,23.2,20.1,30.20,North,5,2.0,9.0,88,0.00,,,0.00,WUHU216DAVISVP2,2013-03-05 13:31:00,
2013-03-05 07:36:00,23.2,20.1,30.20,NNE,14,3.0,9.0,88,0.00,,,0.00,WUHU216DAVISVP2,2013-03-05 13:36:00,
2013-03-05 07:41:00,23.2,20.1,30.20,NNE,30,5.0,9.0,88,0.00,,,0.00,WUHU216DAVISVP2,2013-03-05 13:41:00,
2013-03-05 07:46:00,23.2,20.1,30.20,NE,46,2.0,11.0,88,0.00,,,0.00,WUHU216DAVISVP2,2013-03-05 13:46:00,
2013-03-05 07:51:00,23.3,20.2,30.21,North,360,3.0,11.0,88,0.00,,,0.00,WUHU216DAVISVP2,2013-03-05 13:51:00,
2013-03-05 07:56:00,23.3,20.2,30.21,NNE,28,4.0,9.0,88,0.00,,,0.00,WUHU216DAVISVP2,2013-03-05 13:56:00,
2013-03-05 08:01:00,23.4,20.3,30.21,North,360,3.0,9.0,88,0.00,,,0.00,WUHU216DAVISVP2,2013-03-05 14:01:00,
2013-03-05 08:06:00,23.4,20.3,30.21,NNE,22,4.0,7.0,88,0.00,,,0.00,WUHU216DAVISVP2,2013-03-05 14:06:00,
2013-03-05 08:11:00,23.4,20.1,30.21,NNE,18,4.0,6.0,87,0.00,,,0.00,WUHU216DAVISVP2,2013-03-05 14:11:00,
2013-03-05 08:16:00,23.4,20.1,30.22,NNE,22,10.0,10.0,87,0.00,,,0.00,WUHU216DAVISVP2,2013-03-05 14:16:00,
2013-03-05 08:21:00,23.4,20.1,30.22,North,5,5.0,10.0,87,0.00,,,0.00,WUHU216DAVISVP2,2013-03-05 14:21:00,
2013-03-05 08:26:00,23.4,20.1,30.22,North,5,2.0,7.0,87,0.00,,,0.00,WUHU216DAVISVP2,2013-03-05 14:26:00,
2013-03-05 08:31:00,23.4,20.1,30.22,NNE,15,2.0,9.0,87,0.00,,,0.00,WUHU216DAVISVP2,2013-03-05 14:31:00,
2013-03-05 08:36:00,23.4,20.1,30.22,WNW,298,2.0,9.0,87,0.00,,,0.00,WUHU216DAVISVP2,2013-03-05 14:36:00,
2013-03-05 08:41:00,23.3,20.0,30.22,North,360,5.0,7.0,87,0.00,,,0.00,WUHU216DAVISVP2,2013-03-05 14:41:00,
2013-03-05 08:46:00,23.3,20.0,30.23,North,10,5.0,7.0,87,0.00,,,0.00,WUHU216DAVISVP2,2013-03-05 14:46:00,
2013-03-05 08:51:00,23.2,19.9,30.23,North,5,4.0,7.0,87,0.00,,,0.00,WUHU216DAVISVP2,2013-03-05 14:51:00,
2013-03-05 08:56:00,23.2,19.9,30.23,North,355,4.0,12.0,87,0.00,,,0.00,WUHU216DAVISVP2,2013-03-05 14:56:00,
2013-03-05 09:01:00,23.2,19.9,30.23,NNE,17,1.0,12.0,87,0.00,,,0.00,WUHU216DAVISVP2,2013-03-05 15:01:00,
2013-03-05 09:06:00,23.2,19.9,30.24,NNE,13,5.0,11.0,87,0.00,,,0.00,WUHU216DAVISVP2,2013-03-05 15:06:00,
2013-03-05 09:11:00,23.3,20.0,30.24,North,11,5.0,7.0,87,0.00,,,0.00,WUHU216DAVISVP2,2013-03-05 15:11:00,
2013-03-05 09:16:00,23.4,20.1,30.24,NNE,25,0.0,6.0,87,0.00,,,0.00,WUHU216DAVISVP2,2013-03-05 15:16:00,
2013-03-05 09:21:00,23.3,20.0,30.24,North,5,6.0,7.0,87,0.00,,,0.00,WUHU216DAVISVP2,2013-03-05 15:21:00,
2013-03-05 09:26:00,23.2,19.9,30.24,North,355,3.0,13.0,87,0.00,,,0.00,WUHU216DAVISVP2,2013-03-05 15:26:00,
2013-03-05 09:31:00,23.2,19.9,30.25,NNE,17,3.0,13.0,87,0.00,,,0.00,WUHU216DAVISVP2,2013-03-05 15:31:00,
2013-03-05 09:36:00,23.2,19.9,30.25,North,360,3.0,6.0,87,0.00,,,0.00,WUHU216DAVISVP2,2013-03-05 15:36:00,
2013-03-05 09:41:00,23.2,19.9,30.25,NNE,24,0.0,7.0,87,0.00,,,0.00,WUHU216DAVISVP2,2013-03-05 15:41:00,
2013-03-05 09:46:00,23.2,19.9,30.25,NNW,344,1.0,7.0,87,0.00,,,0.00,WUHU216DAVISVP2,2013-03-05 15:46:00,
2013-03-05 09:51:00,23.1,19.8,30.26,North,11,1.0,6.0,87,0.00,,,0.00,WUHU216DAVISVP2,2013-03-05 15:51:00,
2013-03-05 09:56:00,22.9,19.6,30.26,NNE,12,1.0,7.0,87,0.00,,,0.00,WUHU216DAVISVP2,2013-03-05 15:56:00,
2013-03-05 10:01:00,22.7,19.1,30.26,NNE,19,4.0,9.0,86,0.00,,,0.00,WUHU216DAVISVP2,2013-03-05 16:01:00,
2013-03-05 10:06:00,22.6,19.0,30.26,North,360,3.0,9.0,86,0.00,,,0.00,WUHU216DAVISVP2,2013-03-05 16:06:00,
2013-03-05 10:11:00,22.5,18.9,30.26,North,355,2.0,11.0,86,0.00,,,0.00,WUHU216DAVISVP2,2013-03-05 16:11:00,
2013-03-05 10:16:00,22.5,19.2,30.27,NNE,13,2.0,11.0,87,0.00,,,0.00,WUHU216DAVISVP2,2013-03-05 16:16:00,
2013-03-05 10:21:00,22.5,18.9,30.27,NNW,332,4.0,7.0,86,0.00,,,0.00,WUHU216DAVISVP2,2013-03-05 16:21:00,
2013-03-05 10:26:00,22.4,18.8,30.27,North,9,4.0,7.0,86,0.00,,,0.00,WUHU216DAVISVP2,2013-03-05 16:26:00,
2013-03-05 10:31:00,22.4,18.8,30.27,NNE,16,3.0,9.0,86,0.00,,,0.00,WUHU216DAVISVP2,2013-03-05 16:31:00,
2013-03-05 10:36:00,22.4,18.8,30.27,North,5,4.0,9.0,86,0.00,,,0.00,WUHU216DAVISVP2,2013-03-05 16:36:00,
2013-03-05 10:41:00,22.5,18.9,30.27,NNE,17,3.0,7.0,86,0.00,,,0.00,WUHU216DAVISVP2,2013-03-05 16:41:00,
2013-03-05 10:46:00,22.7,19.1,30.28,WNW,284,3.0,7.0,86,0.00,,,0.00,WUHU216DAVISVP2,2013-03-05 16:46:00,
2013-03-05 10:51:00,22.8,19.2,30.28,NNE,28,3.0,14.0,86,0.00,,,0.00,WUHU216DAVISVP2,2013-03-05 16:51:00,
2013-03-05 10:56:00,22.7,19.1,30.28,North,10,4.0,14.0,86,0.00,,,0.00,WUHU216DAVISVP2,2013-03-05 16:56:00,
2013-03-05 11:01:00,22.6,19.0,30.28,NW,304,2.0,9.0,86,0.00,,,0.00,WUHU216DAVISVP2,2013-03-05 17:01:00,
2013-03-05 11:06:00,22.7,19.1,30.28,North,5,6.0,9.0,86,0.00,,,0.00,WUHU216DAVISVP2,2013-03-05 17:06:00,
2013-03-05 11:11:00,22.9,19.3,30.28,NNE,29,3.0,9.0,86,0.00,,,0.00,WUHU216DAVISVP2,2013-03-05 17:11:00,
2013-03-05 11:16:00,23.0,19.4,30.28,North,5,7.0,13.0,86,0.00,,,0.00,WUHU216DAVISVP2,2013-03-05 17:16:00,
2013-03-05 11:21:00,23.1,19.5,30.29,North,360,3.0,13.0,86,0.00,,,0.00,WUHU216DAVISVP2,2013-03-05 17:21:00,
2013-03-05 11:26:00,23.1,19.5,30.29,NNW,338,3.0,14.0,86,0.00,,,0.00,WUHU216DAVISVP2,2013-03-05 17:26:00,
2013-03-05 11:31:00,23.1,19.5,30.29,NNE,17,3.0,14.0,86,0.00,,,0.00,WUHU216DAVISVP2,2013-03-05 17:31:00,
2013-03-05 11:36:00,23.2,19.6,30.29,North,9,4.0,6.0,86,0.00,,,0.00,WUHU216DAVISVP2,2013-03-05 17:36:00,
2013-03-05 11:41:00,23.1,19.5,30.29,North,360,4.0,6.0,86,0.00,,,0.00,WUHU216DAVISVP2,2013-03-05 17:41:00,
2013-03-05 11:46:00,23.0,19.4,30.30,North,9,9.0,13.0,86,0.00,,,0.00,WUHU216DAVISVP2,2013-03-05 17:46:00,
2013-03-05 11:51:00,22.9,19.3,30.29,North,11,2.0,13.0,86,0.00,,,0.00,WUHU216DAVISVP2,2013-03-05 17:51:00,
2013-03-05 11:56:00,23.0,19.4,30.30,NNE,21,1.0,11.0,86,0.00,,,0.00,WUHU216DAVISVP2,2013-03-05 17:56:00,
2013-03-05 12:01:00,23.1,19.5,30.30,NNE,16,2.0,11.0,86,0.00,,,0.00,WUHU216DAVISVP2,2013-03-05 18:01:00,
2013-03-05 12:06:00,23.1,19.5,30.30,NNW,346,0.0,11.0,86,0.00,,,0.00,WUHU216DAVISVP2,2013-03-05 18:06:00,
2013-03-05 12:11:00,23.2,19.6,30.31,NNW,342,4.0,11.0,86,0.00,,,0.00,WUHU216DAVISVP2,2013-03-05 18:11:00,
2013-03-05 12:16:00,23.3,19.4,30.31,NNW,344,2.0,11.0,85,0.00,,,0.00,WUHU216DAVISVP2,2013-03-05 18:16:00,
2013-03-05 12:21:00,23.3,19.4,30.31,North,9,4.0,11.0,85,0.00,,,0.00,WUHU216DAVISVP2,2013-03-05 18:21:00,
2013-03-05 12:26:00,23.4,19.5,30.31,NNE,23,6.0,10.0,85,0.00,,,0.00,WUHU216DAVISVP2,2013-03-05 18:26:00,
2013-03-05 12:31:00,23.4,19.5,30.31,NNE,24,1.0,10.0,85,0.00,,,0.00,WUHU216DAVISVP2,2013-03-05 18:31:00,
2013-03-05 12:36:00,23.5,19.6,30.32,North,5,1.0,13.0,85,0.00,,,0.00,WUHU216DAVISVP2,2013-03-05 18:36:00,
2013-03-05 12:41:00,23.6,19.7,30.32,WNW,291,2.0,13.0,85,0.00,,,0.00,WUHU216DAVISVP2,2013-03-05 18:41:00,
2013-03-05 12:46:00,23.4,19.5,30.32,NNE,22,4.0,12.0,85,0.00,,,0.00,WUHU216DAVISVP2,2013-03-05 18:46:00,
2013-03-05 12:51:00,23.5,19.6,30.32,WNW,299,12.0,12.0,85,0.00,,,0.00,WUHU216DAVISVP2,2013-03-05 18:51:00,
2013-03-05 12:56:00,23.6,19.7,30.32,NNW,344,2.0,15.0,85,0.00,,,0.00,WUHU216DAVISVP2,2013-03-05 18:56:00,
2013-03-05 13:01:00,23.9,20.0,30.32,NNE,18,1.0,15.0,85,0.00,,,0.00,WUHU216DAVISVP2,2013-03-05 19:01:00,
2013-03-05 13:06:00,24.0,19.8,30.32,North,9,0.0,7.0,84,0.00,,,0.00,WUHU216DAVISVP2,2013-03-05 19:06:00,
2013-03-05 13:11:00,24.0,19.8,30.32,NNE,16,7.0,7.0,84,0.00,,,0.00,WUHU216DAVISVP2,2013-03-05 19:11:00,
2013-03-05 13:16:00,23.9,19.7,30.33,NNE,16,4.0,12.0,84,0.00,,,0.00,WUHU216DAVISVP2,2013-03-05 19:16:00,
2013-03-05 13:21:00,23.9,19.7,30.33,NNE,15,3.0,9.0,84,0.00,,,0.00,WUHU216DAVISVP2,2013-03-05 19:21:00,
2013-03-05 13:26:00,23.9,19.7,30.33,NNE,19,1.0,11.0,84,0.00,,,0.00,WUHU216DAVISVP2,2013-03-05 19:26:00,
2013-03-05 13:31:00,24.2,20.0,30.33,NW,313,0.0,13.0,84,0.00,,,0.00,WUHU216DAVISVP2,2013-03-05 19:31:00,
2013-03-05 13:36:00,24.0,19.8,30.33,North,5,8.0,14.0,84,0.00,,,0.00,WUHU216DAVISVP2,2013-03-05 19:36:00,
2013-03-05 13:41:00,23.9,19.7,30.33,North,9,5.0,14.0,84,0.00,,,0.00,WUHU216DAVISVP2,2013-03-05 19:41:00,
2013-03-05 13:46:00,23.5,19.4,30.33,North,9,9.0,13.0,84,0.00,,,0.00,WUHU216DAVISVP2,2013-03-05 19:46:00,
2013-03-05 13:51:00,23.3,19.2,30.33,North,360,4.0,13.0,84,0.00,,,0.00,WUHU216DAVISVP2,2013-03-05 19:51:00,
2013-03-05 13:56:00,23.2,18.8,30.33,North,360,6.0,13.0,83,0.00,,,0.00,WUHU216DAVISVP2,2013-03-05 19:56:00,
2013-03-05 14:01:00,23.2,19.1,30.33,North,11,13.0,14.0,84,0.00,,,0.00,WUHU216DAVISVP2,2013-03-05 20:01:00,
2013-03-05 14:06:00,23.4,19.3,30.33,NNW,329,0.0,14.0,84,0.00,,,0.00,WUHU216DAVISVP2,2013-03-05 20:06:00,
2013-03-05 14:11:00,23.4,19.0,30.33,North,11,2.0,14.0,83,0.00,,,0.00,WUHU216DAVISVP2,2013-03-05 20:11:00,
2013-03-05 14:16:00,23.3,18.9,30.33,North,360,1.0,15.0,83,0.00,,,0.00,WUHU216DAVISVP2,2013-03-05 20:16:00,
2013-03-05 14:21:00,23.4,19.0,30.33,NNE,13,0.0,15.0,83,0.00,,,0.00,WUHU216DAVISVP2,2013-03-05 20:21:00,
2013-03-05 14:26:00,23.3,18.9,30.33,NNE,15,0.0,15.0,83,0.00,,,0.00,WUHU216DAVISVP2,2013-03-05 20:26:00,
2013-03-05 14:32:00,22.8,18.4,30.33,NNE,13,2.0,15.0,83,0.00,,,0.00,WUHU216DAVISVP2,2013-03-05 20:32:00,
2013-03-05 14:37:00,22.9,18.5,30.33,North,360,2.0,11.0,83,0.00,,,0.00,WUHU216DAVISVP2,2013-03-05 20:37:00,
2013-03-05 14:42:00,22.9,18.5,30.33,NNW,346,5.0,13.0,83,0.00,,,0.00,WUHU216DAVISVP2,2013-03-05 20:42:00,
2013-03-05 14:47:00,22.8,18.4,30.33,NNE,24,4.0,16.0,83,0.00,,,0.00,WUHU216DAVISVP2,2013-03-05 20:47:00,
2013-03-05 14:52:00,22.7,18.3,30.34,NNE,14,2.0,21.0,83,0.00,,,0.00,WUHU216DAVISVP2,2013-03-05 20:52:00,
2013-03-05 14:57:00,22.6,18.2,30.34,North,360,2.0,21.0,83,0.00,,,0.00,WUHU216DAVISVP2,2013-03-05 20:57:00,
2013-03-05 15:02:00,22.5,18.1,30.34,NNE,26,5.0,20.0,83,0.00,,,0.00,WUHU216DAVISVP2,2013-03-05 21:02:00,
2013-03-05 15:07:00,22.5,18.1,30.34,North,9,11.0,20.0,83,0.00,,,0.00,WUHU216DAVISVP2,2013-03-05 21:07:00,
2013-03-05 15:12:00,22.5,18.1,30.34,North,355,1.0,15.0,83,0.00,,,0.00,WUHU216DAVISVP2,2013-03-05 21:12:00,
2013-03-05 15:17:00,22.5,18.1,30.34,North,360,2.0,15.0,83,0.00,,,0.00,WUHU216DAVISVP2,2013-03-05 21:17:00,
2013-03-05 15:22:00,22.4,17.7,30.34,NNE,15,0.0,9.0,82,0.00,,,0.00,WUHU216DAVISVP2,2013-03-05 21:22:00,
2013-03-05 15:27:00,22.8,18.4,30.34,NNW,346,0.0,9.0,83,0.00,,,0.00,WUHU216DAVISVP2,2013-03-05 21:27:00,
2013-03-05 15:32:00,22.9,18.5,30.34,North,355,9.0,11.0,83,0.00,,,0.00,WUHU216DAVISVP2,2013-03-05 21:32:00,
2013-03-05 15:37:00,22.9,18.2,30.34,NNE,28,2.0,11.0,82,0.00,,,0.00,WUHU216DAVISVP2,2013-03-05 21:37:00,
2013-03-05 15:42:00,22.8,18.1,30.35,NNE,22,2.0,12.0,82,0.00,,,0.00,WUHU216DAVISVP2,2013-03-05 21:42:00,
2013-03-05 15:47:00,23.0,18.3,30.35,NNW,338,0.0,12.0,82,0.00,,,0.00,WUHU216DAVISVP2,2013-03-05 21:47:00,
2013-03-05 15:52:00,23.0,18.3,30.36,NNW,336,2.0,7.0,82,0.00,,,0.00,WUHU216DAVISVP2,2013-03-05 21:52:00,
2013-03-05 15:57:00,22.9,18.2,30.36,North,5,0.0,11.0,82,0.00,,,0.00,WUHU216DAVISVP2,2013-03-05 21:57:00,
2013-03-05 16:02:00,23.0,18.3,30.36,NNE,13,0.0,11.0,82,0.00,,,0.00,WUHU216DAVISVP2,2013-03-05 22:02:00,
2013-03-05 16:07:00,23.0,18.3,30.37,WNW,298,0.0,7.0,82,0.00,,,0.00,WUHU216DAVISVP2,2013-03-05 22:07:00,
2013-03-05 16:12:00,22.9,17.9,30.36,NNE,19,3.0,9.0,81,0.00,,,0.00,WUHU216DAVISVP2,2013-03-05 22:12:00,
2013-03-05 16:17:00,22.6,17.6,30.37,NNE,32,2.0,9.0,81,0.00,,,0.00,WUHU216DAVISVP2,2013-03-05 22:17:00,
2013-03-05 16:22:00,22.3,17.3,30.37,NNE,24,1.0,14.0,81,0.00,,,0.00,WUHU216DAVISVP2,2013-03-05 22:22:00,
2013-03-05 16:27:00,22.1,17.2,30.37,North,360,3.0,15.0,81,0.00,,,0.00,WUHU216DAVISVP2,2013-03-05 22:27:00,
2013-03-05 16:32:00,22.0,17.1,30.37,SW,234,0.0,15.0,81,0.00,,,0.00,WUHU216DAVISVP2,2013-03-05 22:32:00,
2013-03-05 16:37:00,21.9,17.0,30.37,NW,323,0.0,7.0,81,0.00,,,0.00,WUHU216DAVISVP2,2013-03-05 22:37:00,
2013-03-05 16:42:00,21.7,16.5,30.37,North,10,1.0,14.0,80,0.00,,,0.00,WUHU216DAVISVP2,2013-03-05 22:42:00,
2013-03-05 16:47:00,21.6,16.4,30.38,NNE,22,2.0,14.0,80,0.00,,,0.00,WUHU216DAVISVP2,2013-03-05 22:47:00,
2013-03-05 16:52:00,21.6,16.7,30.38,NNE,22,3.0,16.0,81,0.00,,,0.00,WUHU216DAVISVP2,2013-03-05 22:52:00,
2013-03-05 16:57:00,21.6,16.7,30.38,NNE,21,1.0,16.0,81,0.00,,,0.00,WUHU216DAVISVP2,2013-03-05 22:57:00,
2013-03-05 17:02:00,21.6,16.7,30.38,North,9,5.0,14.0,81,0.00,,,0.00,WUHU216DAVISVP2,2013-03-05 23:02:00,
2013-03-05 17:07:00,21.6,16.7,30.38,NNE,13,0.0,14.0,81,0.00,,,0.00,WUHU216DAVISVP2,2013-03-05 23:07:00,
2013-03-05 17:12:00,21.5,16.6,30.38,NNE,13,0.0,13.0,81,0.00,,,0.00,WUHU216DAVISVP2,2013-03-05 23:12:00,
2013-03-05 17:17:00,21.5,16.6,30.38,NNE,13,0.0,11.0,81,0.00,,,0.00,WUHU216DAVISVP2,2013-03-05 23:17:00,
2013-03-05 17:22:00,21.5,16.8,30.39,NNE,18,1.0,10.0,82,0.00,,,0.00,WUHU216DAVISVP2,2013-03-05 23:22:00,
2013-03-05 17:27:00,21.4,16.5,30.39,NNE,17,1.0,9.0,81,0.00,,,0.00,WUHU216DAVISVP2,2013-03-05 23:27:00,
2013-03-05 17:32:00,21.4,16.5,30.39,North,11,0.0,9.0,81,0.00,,,0.00,WUHU216DAVISVP2,2013-03-05 23:32:00,
2013-03-05 17:37:00,21.3,16.4,30.39,NNW,340,0.0,10.0,81,0.00,,,0.00,WUHU216DAVISVP2,2013-03-05 23:37:00,
2013-03-05 17:42:00,21.3,16.6,30.39,NNE,20,0.0,10.0,82,0.00,,,0.00,WUHU216DAVISVP2,2013-03-05 23:42:00,
2013-03-05 17:47:00,21.3,16.6,30.39,NNE,17,0.0,10.0,82,0.00,,,0.00,WUHU216DAVISVP2,2013-03-05 23:47:00,
2013-03-05 17:52:00,21.3,16.6,30.40,North,355,0.0,9.0,82,0.00,,,0.00,WUHU216DAVISVP2,2013-03-05 23:52:00,
2013-03-05 17:57:00,21.4,17.0,30.40,NW,315,0.0,7.0,83,0.00,,,0.00,WUHU216DAVISVP2,2013-03-05 23:57:00,
2013-03-05 18:02:00,21.4,17.0,30.40,North,350,0.0,0.0,83,0.00,,,0.00,WUHU216DAVISVP2,2013-03-06 00:02:00,
2013-03-05 18:07:00,21.3,16.6,30.40,NW,310,0.0,3.0,82,0.00,,,0.00,WUHU216DAVISVP2,2013-03-06 00:07:00,
2013-03-05 18:12:00,21.2,16.8,30.40,NNW,343,0.0,3.0,83,0.00,,,0.00,WUHU216DAVISVP2,2013-03-06 00:12:00,
2013-03-05 18:17:00,21.1,16.7,30.40,NNW,341,0.0,1.0,83,0.00,,,0.00,WUHU216DAVISVP2,2013-03-06 00:17:00,
2013-03-05 18:22:00,21.0,16.6,30.40,NW,313,0.0,1.0,83,0.00,,,0.00,WUHU216DAVISVP2,2013-03-06 00:22:00,
2013-03-05 18:27:00,20.9,16.5,30.40,WNW,302,0.0,4.0,83,0.00,,,0.00,WUHU216DAVISVP2,2013-03-06 00:27:00,
2013-03-05 18:32:00,20.9,16.5,30.40,NW,317,0.0,5.0,83,0.00,,,0.00,WUHU216DAVISVP2,2013-03-06 00:32:00,
2013-03-05 18:37:00,20.8,16.4,30.40,NNW,334,0.0,7.0,83,0.00,,,0.00,WUHU216DAVISVP2,2013-03-06 00:37:00,
2013-03-05 18:42:00,20.8,16.4,30.41,NW,306,0.0,7.0,83,0.00,,,0.00,WUHU216DAVISVP2,2013-03-06 00:42:00,
2013-03-05 18:47:00,20.7,16.3,30.41,NW,324,0.0,6.0,83,0.00,,,0.00,WUHU216DAVISVP2,2013-03-06 00:47:00,
2013-03-05 18:52:00,20.6,16.2,30.41,NNW,336,0.0,2.0,83,0.00,,,0.00,WUHU216DAVISVP2,2013-03-06 00:52:00,
2013-03-05 18:57:00,20.6,16.2,30.41,NNW,335,0.0,5.0,83,0.00,,,0.00,WUHU216DAVISVP2,2013-03-06 00:57:00,
2013-03-05 19:02:00,20.5,15.9,30.41,NW,306,0.0,5.0,82,0.00,,,0.00,WUHU216DAVISVP2,2013-03-06 01:02:00,
2013-03-05 19:07:00,20.5,15.9,30.41,NW,310,0.0,5.0,82,0.00,,,0.00,WUHU216DAVISVP2,2013-03-06 01:07:00,
2013-03-05 19:12:00,20.4,15.8,30.41,NW,304,0.0,11.0,82,0.00,,,0.00,WUHU216DAVISVP2,2013-03-06 01:12:00,
2013-03-05 19:17:00,20.4,16.0,30.41,NW,304,0.0,11.0,83,0.00,,,0.00,WUHU216DAVISVP2,2013-03-06 01:17:00,
2013-03-05 19:22:00,20.3,15.9,30.42,WNW,299,0.0,1.0,83,0.00,,,0.00,WUHU216DAVISVP2,2013-03-06 01:22:00,
2013-03-05 19:27:00,20.3,15.9,30.42,WNW,299,0.0,1.0,83,0.00,,,0.00,WUHU216DAVISVP2,2013-03-06 01:27:00,
2013-03-05 19:32:00,20.2,15.8,30.42,WNW,302,0.0,0.0,83,0.00,,,0.00,WUHU216DAVISVP2,2013-03-06 01:32:00,
2013-03-05 19:37:00,20.2,15.8,30.42,WNW,295,0.0,7.0,83,0.00,,,0.00,WUHU216DAVISVP2,2013-03-06 01:37:00,
2013-03-05 19:42:00,20.2,15.8,30.42,WNW,284,0.0,7.0,83,0.00,,,0.00,WUHU216DAVISVP2,2013-03-06 01:42:00,
2013-03-05 19:47:00,20.1,15.7,30.42,NW,315,0.0,4.0,83,0.00,,,0.00,WUHU216DAVISVP2,2013-03-06 01:47:00,
2013-03-05 19:52:00,20.1,15.7,30.41,NW,319,0.0,5.0,83,0.00,,,0.00,WUHU216DAVISVP2,2013-03-06 01:52:00,
2013-03-05 19:57:00,20.0,15.6,30.41,NW,313,0.0,5.0,83,0.00,,,0.00,WUHU216DAVISVP2,2013-03-06 01:57:00,
2013-03-05 20:02:00,19.9,15.6,30.41,North,360,0.0,4.0,83,0.00,,,0.00,WUHU216DAVISVP2,2013-03-06 02:02:00,
2013-03-05 20:07:00,19.9,15.6,30.41,North,360,0.0,4.0,83,0.00,,,0.00,WUHU216DAVISVP2,2013-03-06 02:07:00,
2013-03-05 20:12:00,19.9,15.3,30.41,WNW,302,0.0,9.0,82,0.00,,,0.00,WUHU216DAVISVP2,2013-03-06 02:12:00,
2013-03-05 20:17:00,19.9,15.3,30.41,NW,306,0.0,9.0,82,0.00,,,0.00,WUHU216DAVISVP2,2013-03-06 02:17:00,
2013-03-05 20:22:00,19.8,15.2,30.41,North,360,0.0,0.0,82,0.00,,,0.00,WUHU216DAVISVP2,2013-03-06 02:22:00,
2013-03-05 20:27:00,19.8,15.2,30.41,WNW,302,0.0,0.0,82,0.00,,,0.00,WUHU216DAVISVP2,2013-03-06 02:27:00,
2013-03-05 20:32:00,19.7,15.1,30.41,WNW,292,0.0,0.0,82,0.00,,,0.00,WUHU216DAVISVP2,2013-03-06 02:32:00,
2013-03-05 20:37:00,19.7,15.1,30.41,NW,307,0.0,3.0,82,0.00,,,0.00,WUHU216DAVISVP2,2013-03-06 02:37:00,
2013-03-05 20:42:00,19.7,15.1,30.41,NW,306,0.0,3.0,82,0.00,,,0.00,WUHU216DAVISVP2,2013-03-06 02:42:00,
2013-03-05 20:47:00,19.7,15.1,30.41,NNW,336,0.0,1.0,82,0.00,,,0.00,WUHU216DAVISVP2,2013-03-06 02:47:00,
2013-03-05 20:52:00,19.7,15.4,30.42,NW,312,0.0,1.0,83,0.00,,,0.00,WUHU216DAVISVP2,2013-03-06 02:52:00,
2013-03-05 20:57:00,19.7,15.4,30.42,WNW,299,0.0,1.0,83,0.00,,,0.00,WUHU216DAVISVP2,2013-03-06 02:57:00,
2013-03-05 21:02:00,19.7,15.4,30.42,WNW,302,0.0,3.0,83,0.00,,,0.00,WUHU216DAVISVP2,2013-03-06 03:02:00,
2013-03-05 21:07:00,19.7,15.4,30.42,WNW,289,0.0,3.0,83,0.00,,,0.00,WUHU216DAVISVP2,2013-03-06 03:07:00,
2013-03-05 21:12:00,19.7,15.4,30.43,WNW,299,0.0,1.0,83,0.00,,,0.00,WUHU216DAVISVP2,2013-03-06 03:12:00,
2013-03-05 21:17:00,19.7,15.4,30.43,NW,307,0.0,1.0,83,0.00,,,0.00,WUHU216DAVISVP2,2013-03-06 03:17:00,
2013-03-05 21:22:00,19.7,15.4,30.42,NW,306,0.0,0.0,83,0.00,,,0.00,WUHU216DAVISVP2,2013-03-06 03:22:00,
2013-03-05 21:27:00,19.6,15.3,30.42,NW,315,0.0,0.0,83,0.00,,,0.00,WUHU216DAVISVP2,2013-03-06 03:27:00,
2013-03-05 21:32:00,19.6,15.3,30.43,North,5,0.0,0.0,83,0.00,,,0.00,WUHU216DAVISVP2,2013-03-06 03:32:00,
2013-03-05 21:37:00,19.5,15.2,30.43,North,5,0.0,0.0,83,0.00,,,0.00,WUHU216DAVISVP2,2013-03-06 03:37:00,
2013-03-05 21:42:00,19.5,15.2,30.43,WNW,290,0.0,0.0,83,0.00,,,0.00,WUHU216DAVISVP2,2013-03-06 03:42:00,
2013-03-05 21:47:00,19.5,15.2,30.43,NW,317,0.0,2.0,83,0.00,,,0.00,WUHU216DAVISVP2,2013-03-06 03:47:00,
2013-03-05 21:52:00,19.4,15.1,30.44,NW,309,0.0,2.0,83,0.00,,,0.00,WUHU216DAVISVP2,2013-03-06 03:52:00,
2013-03-05 21:57:00,19.3,15.0,30.44,West,279,0.0,0.0,83,0.00,,,0.00,WUHU216DAVISVP2,2013-03-06 03:57:00,
2013-03-05 22:02:00,19.3,15.0,30.44,WNW,292,0.0,1.0,83,0.00,,,0.00,WUHU216DAVISVP2,2013-03-06 04:02:00,
2013-03-05 22:07:00,19.3,15.0,30.44,NW,310,0.0,1.0,83,0.00,,,0.00,WUHU216DAVISVP2,2013-03-06 04:07:00,
2013-03-05 22:12:00,19.3,15.0,30.44,NW,309,0.0,1.0,83,0.00,,,0.00,WUHU216DAVISVP2,2013-03-06 04:12:00,
2013-03-05 22:17:00,19.2,14.9,30.44,WNW,299,0.0,1.0,83,0.00,,,0.00,WUHU216DAVISVP2,2013-03-06 04:17:00,
2013-03-05 22:22:00,19.2,14.9,30.44,WNW,303,0.0,2.0,83,0.00,,,0.00,WUHU216DAVISVP2,2013-03-06 04:22:00,
2013-03-05 22:27:00,19.2,14.9,30.45,WNW,283,0.0,2.0,83,0.00,,,0.00,WUHU216DAVISVP2,2013-03-06 04:27:00,
2013-03-05 22:32:00,19.1,14.8,30.44,WNW,296,0.0,2.0,83,0.00,,,0.00,WUHU216DAVISVP2,2013-03-06 04:32:00,
2013-03-05 22:37:00,19.1,14.8,30.44,WNW,298,0.0,5.0,83,0.00,,,0.00,WUHU216DAVISVP2,2013-03-06 04:37:00,
2013-03-05 22:42:00,19.1,14.8,30.45,WNW,298,0.0,5.0,83,0.00,,,0.00,WUHU216DAVISVP2,2013-03-06 04:42:00,
2013-03-05 22:47:00,19.1,14.8,30.45,WNW,298,0.0,0.0,83,0.00,,,0.00,WUHU216DAVISVP2,2013-03-06 04:47:00,
2013-03-05 22:52:00,19.0,14.7,30.44,WNW,299,0.0,0.0,83,0.00,,,0.00,WUHU216DAVISVP2,2013-03-06 04:52:00,
2013-03-05 22:57:00,19.0,14.7,30.44,North,360,0.0,1.0,83,0.00,,,0.00,WUHU216DAVISVP2,2013-03-06 04:57:00,
2013-03-05 23:00:00,19.0,14.7,30.44,North,351,0.0,5.0,83,0.00,,,0.00,WUHU216DAVISVP2,2013-03-06 05:00:00,
2013-03-05 23:05:00,19.0,14.7,30.44,NW,326,0.0,5.0,83,0.00,,,0.00,WUHU216DAVISVP2,2013-03-06 05:05:00,
2013-03-05 23:10:00,18.9,14.6,30.44,NW,317,0.0,0.0,83,0.00,,,0.00,WUHU216DAVISVP2,2013-03-06 05:10:00,
2013-03-05 23:15:00,19.0,14.7,30.44,WNW,298,0.0,0.0,83,0.00,,,0.00,WUHU216DAVISVP2,2013-03-06 05:15:00,
2013-03-05 23:20:00,18.9,14.6,30.45,WNW,298,0.0,0.0,83,0.00,,,0.00,WUHU216DAVISVP2,2013-03-06 05:20:00,
2013-03-05 23:25:00,18.9,14.6,30.45,WNW,298,0.0,0.0,83,0.00,,,0.00,WUHU216DAVISVP2,2013-03-06 05:25:00,
2013-03-05 23:30:00,18.9,14.6,30.44,WNW,298,0.0,0.0,83,0.00,,,0.00,WUHU216DAVISVP2,2013-03-06 05:30:00,
2013-03-05 23:35:00,18.9,14.8,30.45,WNW,298,0.0,0.0,84,0.00,,,0.00,WUHU216DAVISVP2,2013-03-06 05:35:00,
2013-03-05 23:40:00,18.9,14.8,30.45,North,351,0.0,0.0,84,0.00,,,0.00,WUHU216DAVISVP2,2013-03-06 05:40:00,
2013-03-05 23:45:00,18.8,14.7,30.45,WNW,296,0.0,1.0,84,0.00,,,0.00,WUHU216DAVISVP2,2013-03-06 05:45:00,
2013-03-05 23:50:00,18.8,14.5,30.45,WNW,298,0.0,1.0,83,0.00,,,0.00,WUHU216DAVISVP2,2013-03-06 05:50:00,
2013-03-05 23:55:00,18.7,14.6,30.45,WNW,296,0.0,1.0,84,0.00,,,0.00,WUHU216DAVISVP2,2013-03-06 05:55:00,